www.pogodaiklimat.ru

Погода и климат >> Архив погоды >> Мьянма >> Хомалин


ПОГОДА в Хомалине

  • Прогноз погоды в Хомалине
  • Монитор погоды в Хомалине

АРХИВ ПОГОДЫ в Хомалине

Время (UTC), дата Ветер
(напр.,м/с)
 
Видим.   Явления Облачность Т
(С)
Тd
(С)
f
(%)
Тe
(С)
Тes
(С)
Комфортность P
(гПа)
Po
(гПа)
Тmin
(С)
Tmax
(С)
R
(мм)
R24
(мм)
S
(см)
03 11.09 ЮВ 1 6000 м {морось} 10/10 300 м
[Frnb]
+26.5 +26.5 100 +40 +40 очень
душно
1005.9 991.0
06 11.09 Ю 1 6000 м {морось} 10/10 300 м
[Frnb]
+27.5 +27.4 99 +44 +44 опасность
перегрева
1006.2 991.3
09 11.09 штиль 0 7000 м 9/6 300 м
[Frnb Ac As]
+28.0 +27.4 97 +45 +47 опасность
перегрева
1004.0 989.2
12 11.09 штиль 0 2000 м 9/6 300 м
[Frnb Ac As]
+27.2 +25.6 91 +40 +40 очень
душно
1003.1 988.3 +28.2 1
15 11.09 н/о
00 12.09 штиль 0 2000 м 10/10 300 м
[Frnb]
+25.5 +25.5 100 +37 +37 очень
душно
1007.8 992.8 +24.2 1
03 12.09 штиль 0 3000 м слаб. морось 10/10 300 м
[Frnb]
+26.0 +26.0 100 +39 +39 очень
душно
1010.4 995.4
06 12.09 Ю 1 2000 м слаб. морось 10/10 300 м
[Frnb]
+27.0 +25.6 92 +40 +40 очень
душно
1009.7 994.8
09 12.09 Ю 1 3000 м {морось} 10/10 300 м
[Frnb]
+27.5 +26.8 96 +43 +43 опасность
перегрева
1007.2 992.3
12 12.09 штиль 0 1000 м 10/10 300 м
[Frnb]
+27.0 +26.3 96 +41 +41 опасность
перегрева
1006.2 991.3 +27.7 0.0
00 13.09 штиль 0 4000 м 10/10 300 м
[Frnb]
+26.0 +25.3 96 +38 +38 очень
душно
1008.2 993.2 +24.3
03 13.09 Ю 1 6000 м 9/6 300 м
[Frnb Ac As]
+27.5 +26.8 96 +43 +45 опасность
перегрева
1009.2 994.3
06 13.09 Ю 1 8000 м 9/6 600 м
[Cu Sc Ac trans]
+30.0 +26.6 82 +46 +51 опасность
перегрева
1007.8 993.0
09 13.09 С 1 4000 м гроза без осадков 9/6 300 м
[Cb cap Ac As]
+30.7 +26.7 79 +47 +49 опасность
перегрева
1004.2 989.5
12 13.09 штиль 0 3000 м {гроза, дождь} 9/6 300 м
[Cb cap Ac As]
+27.0 +27.0 100 +42 +42 опасность
перегрева
1003.8 988.9 +32.8 21
00 14.09 штиль 0 4000 м {морось} 10/10 300 м
[Frnb]
+26.0 +26.0 100 +39 +39 очень
душно
1007.2 992.2 +24.5 0.0
03 14.09 С 1 6000 м 10/10 300 м
[Frnb]
+27.5 +26.8 96 +43 +43 опасность
перегрева
1008.7 993.8
06 14.09 штиль 0 7000 м 9/5 300 м
[Frnb Ac As]
+28.5 +25.0 81 +41 +46 опасность
перегрева
1007.5 992.7
09 14.09 Ю 1 8000 м 9/5 300 м
[Cu Sc Ac As]
+31.5 +28.1 82 +52 +54 опасность
перегрева
1004.4 989.7
12 14.09 штиль 0 3000 м 8/5 300 м
[Cu Sc Ac trans Ci fib]
+30.5 +25.3 74 +44 +44 опасность
перегрева
1003.5 988.8 +32.0
00 15.09 штиль 0 4000 м 9/5 600 м
[Frnb Ac trans]
+26.5 +25.3 93 +38 +39 очень
душно
1006.8 991.9 +25.0
03 15.09 ЮЗ 1 7000 м 5/4 600 м
[Cu Sc Ac trans]
+28.5 +25.0 81 +41 +48 опасность
перегрева
1007.2 992.4
06 15.09 Ю 1 10 км 6/4 600 м
[Cu Sc Ac trans Ci fib]
+33.5 +28.8 76 +56 +67 опасность
перегрева
1005.7 991.1
09 15.09 штиль 0 10 км 8/5 600 м
[Cu Sc Ac trans Ci fib]
+35.0 +28.0 67 +56 +59 опасность
перегрева
1002.9 988.4
12 15.09 штиль 0 2000 м гроза, ливневой дождь {морось} 9/6 300 м
[Cb cap Ac As]
+28.7 +25.9 85 +43 +43 опасность
перегрева
1002.7 987.9 +35.3 0.0
03 16.09 Ю 1 1000 м слаб. дождь {морось} 10/10 300 м
[Frnb]
+25.5 +25.5 100 +37 +37 очень
душно
1008.7 993.7
06 16.09 Ю 1 6000 м {дождь} 10/6 300 м
[Frnb Ac As]
+26.0 +25.3 96 +38 +40 очень
душно
1007.5 992.5
09 16.09 Ю 1 7000 м 9/6 300 м
[Cu Sc Ac trans]
+29.0 +25.9 83 +43 +45 опасность
перегрева
1004.0 989.2
12 16.09 штиль 0 3000 м 8/5 300 м
[Frnb Ac trans]
+28.0 +26.8 93 +44 +44 опасность
перегрева
1002.8 988.0 +29.2 12
00 17.09 штиль 0 4000 м 5/4 600 м
[Frnb Ac trans]
+26.0 +25.3 96 +38 +38 очень
душно
1006.8 991.8 +24.0
03 17.09 Ю 1 6000 м в посл. час морось 9/6 300 м
[Frnb Ac As]
+26.0 +25.3 96 +38 +40 очень
душно
1009.2 994.2
06 17.09 Ю 1 8000 м 6/4 600 м
[Cu Sc Ac trans]
+29.0 +25.9 83 +43 +54 опасность
перегрева
1008.5 993.7
09 17.09 Ю 1 10 км 6/4 600 м
[Cu Sc Ac trans Ci fib]
+32.0 +26.5 73 +49 +53 опасность
перегрева
1005.4 990.8
12 17.09 штиль 0 3000 м 9/6 300 м
[Cu Sc Ac trans Ci fib]
+31.0 +26.7 78 +48 +48 опасность
перегрева
1005.3 990.6 +32.5 0.0
00 18.09 штиль 0 4000 м 5/1 600 м
[Sc diur, vesp Ac trans]
+25.5 +25.3 99 +37 +37 очень
душно
1009.7 994.7 +23.8

 

Местоположение метеостанции Хомалин (Мьянма): широта 24.87 долгота 94.92 высота над уровнем моря 131 м.

В архиве по умолчанию представлена погода в Хомалине за последнюю неделю. Архивные данные за месяц целиком и за предыдущие месяцы, начиная с января 2011 года, Вы можете получить, выбрав интересующий диапазон дат из раскрывающегося списка и нажав кнопку "Ввод!".


*Определитесь, кто Вы:
робот инопланетянин человек

Внимание! Время в таблицах - всемирное. Для получения местного времени необходимо прибавить поправку, которая равна 6.5 ч.

Смотрите также архив погоды в соседних городах и на ближайших метеорологических станциях:

Погода в Импхале (Манипур, Индия) (105 км)
Погода в Кохиме (Нагаланд, Индия) (113 км)
Погода в Молейке (Мьянма) (147 км)
Погода в Хкамти (Мьянма) (148 км)
Погода в Катхе (Мьянма) (163 км)
Погода в Хафлонге (Ассам, Индия) (194 км)
Погода в Калеве (Мьянма) (196 км)
Погода в Ламдинге (Ассам, Индия) (200 км)
Погода в Голагате (Ассам, Индия) (206 км)
Погода в Силчаре (Ассам, Индия) (214 км)

Пояснения к столбцам:

Ветер - указаны скорость ветра в м/с - средняя за 10 мин, порывы в срок и между сроками (в фигурных скобках) и направление, откуда дует ветер: С - северный, СВ - северо-восточный, В - восточный, ЮВ - юго-восточный, Ю - южный, ЮЗ - юго-западный, З - западный, СЗ - северо-западный.
Видимость - горизонтальная дальность видимости в метрах или километрах. При видимости от 1 до 10 км при отсутствии осадков обычно наблюдается дымка, при ухудшении видимости до 1 км и менее - туман. В сухую погоду видимость может ухудшаться дымом, пылью или мглою.
Явления - указаны атмосферные явления, наблюдавшиеся в срок или в последний час перед сроком; фигурными скобками обозначены явления, наблюдавшиеся между сроками (за 1-3 часа до срока); квадратными скобками обозначены град или гололедные отложения с указанием их диаметра в мм.
Облачность - указаны через наклонную черту общая и нижняя облачность в баллах и высота нижней границы облаков в метрах; квадратными скобками обозначены формы облаков: Ci - перистые, Cs - перисто-слоистые, Cc - перисто-кучевые, Ac - высококучевые, As - высокослоистые, Sc - слоисто-кучевые, Ns - слоисто-дождевые, Cu - кучевые, Cb - кучево-дождевые. Подробнее классификацию облаков см. в Атласе облаков (PDF).
T - Температура воздуха - температура, измеренная на высоте 2 м над землей.
Td - Температура точки росы - температура, при понижении до которой содержащийся в воздухе водяной пар достигнет насыщения.
f - Относительная влажность воздуха - влажноcть воздуха, измеренная на высоте 2 м над землей.
Te - Эффективная температура - температура, которую ощущает одетый по сезону человек в тени. Характеристика душности погоды. При расчете учитывается влияние влажности воздуха и скорости ветра на теплоощущения человека.
Tes - Эффективная температура на солнце - температура, которую ощущает человек, с поправкой на солнечный нагрев. Характеристика знойности погоды. Зависит от высоты солнца над горизонтом, облачности и скорости ветра. Ночью, в пасмурную погоду, а также при ветре 12 м/с и более поправка равна нулю.
P - Атмосферное давление - приведенное к уровню моря атмосферное давление.
Po - Атмосферное давление - измеренное на уровне метеостанции атмосферное давление.
Tmin - Минимальная температура - минимум температуры воздуха на высоте 2 м над землей.
Tmax - Максимальная температура - максимум температуры воздуха на высоте 2 м над землей.
R - Количество осадков - Количество выпавших осадков за период времени, мм. При наведении курсора мыши на число - период времени, за который выпало указанное количество осадков.
R24 - Количество осадков - Количество выпавших осадков за 24 часа, мм.
S - Снежный покров - Высота снежного покрова, см. При наведении курсора мыши на число - состояние снежного покрова и степень покрытия местности в баллах.